461  
ASUS41 KBOX 210710  
RWRBOX  
 
REGIONAL WEATHER ROUNDUP  
NATIONAL WEATHER SERVICE BOSTON/NORTON MA  
300 AM EDT SUN JUL 21 2019  
 
NOTE: "FAIR" INDICATES FEW OR NO CLOUDS BELOW 12,000 FEET WITH NO  
SIGNIFICANT WEATHER AND/OR S TO VISIBILITY
.  
 
MAZALL-210800-  
EASTERN MASSACHUSETTS  
 
CITY SKY/WX TMP DP RH WIND PRES REMARKS
 
BOSTON FAIR 85 68 56 W12 29.70F  
BEVERLY FAIR 81 67 62 W9 29.69S  
LAWRENCE FAIR 80 67 64 SW9 29.71F  
BEDFORD FAIR 81 67 62 SW8 29.70F  
BLUE HILL N/A 78 71 79 W12 29.74F  
NORWOOD FAIR 83 71 67 W9 29.72S  
MARSHFIELD FAIR 82 77 83 VRB7 29.71S HX 91  
PLYMOUTH FAIR 79 75 87 W7 29.73S  
TAUNTON FAIR 79 74 84 CALM 29.73S  
NEW BEDFORD FAIR 79 74 84 W6 29.73S  

 
 
MAZALL-210800-  
CAPE COD AND THE ISLANDS  
 
CITY SKY/WX TMP DP RH WIND PRES REMARKS
 
FALMOUTH FAIR 75 73 94 W7 29.74S  
HYANNIS FAIR 80 73 79 SW8 29.71S  
CHATHAM FAIR 77 74 90 SW6 29.73S  
PROVINCETOWN FAIR 75 74 96 SW8 29.72S  
NANTUCKET FAIR 73 72 96 W13 29.74S HAZE  
MARTHAS VNYRD FAIR 77 72 84 W7 29.75R  

 
 
MAZALL-210800-  
CENTRAL AND WESTERN MASSACHUSETTS  
 
CITY SKY/WX TMP DP RH WIND PRES REMARKS
 
WORCESTER FAIR 75 67 76 W10 29.78F  
FITCHBURG FAIR 79 67 66 NW6 29.74F  
ORANGE FAIR 74 69 85 SW6 29.77F  
SPRINGFIELD FAIR 75 68 77 CALM 29.74F  
WESTFIELD FAIR 74 68 81 S7 29.75F  
NORTH ADAMS CLOUDY 69 69 100 CALM 29.78F  
PITTSFIELD FAIR 68 66 93 CALM 29.80F  

 
 
RIZALL-210800-  
RHODE ISLAND  
 
CITY SKY/WX TMP DP RH WIND PRES REMARKS
 
PROVIDENCE FAIR 82 74 76 W6 29.74F  
NEWPORT FAIR 80 75 84 CALM 29.75S  
BLOCK ISLAND FAIR 73 70 90 W9 29.77R  
SMITHFIELD FAIR 78 70 76 W6 29.76F  
WESTERLY FAIR 78 76 93 CALM 29.76S  

 
 
CTZALL-210800-  
CONNECTICUT  
 
CITY SKY/WX TMP DP RH WIND PRES REMARKS
 
BRADLEY INTL FAIR 79 69 71 CALM 29.74F  
HARTFORD FAIR 80 75 84 CALM 29.74F  
BRIDGEPORT FAIR 79 73 82 SW3 29.76F  
DANBURY FAIR 76 71 85 CALM 29.79F  
GROTON FAIR 79 72 79 W3 29.75S  
NEW HAVEN FAIR 79 74 84 CALM 29.76F  
CHESTER FAIR 81 73 78 CALM 29.78S  
MERIDEN FAIR 76 73 91 CALM 29.75F  
WILLIMANTIC FAIR 77 75 93 CALM 29.76F  
OXFORD FAIR 77 72 84 CALM 29.80F  

 
 
MEZ002-015-021-024-NHZ003-005-008-011-012-014-VTZ005-008-210800-  
NORTHERN NEW ENGLAND  
 
CITY SKY/WX TMP DP RH WIND PRES REMARKS
 
PORTLAND ME FAIR 80 72 76 CALM 29.65F  
BANGOR ME MOCLDY 76 70 82 SW6 29.62F  
CONCORD NH FAIR 81 70 69 W7 29.69F  
MANCHESTER NH FAIR 82 71 69 S5 29.68F  
NASHUA NH FAIR 79 71 76 W5 29.71F  
PORTSMOUTH NH CLOUDY 82 74 77 SW7 29.66S  
JAFFREY NH FAIR 75 67 76 S3 29.78F  
KEENE NH FAIR 74 69 85 CALM 29.75F  
BURLINGTON VT CLOUDY 82 72 71 S5 29.68F  
MT. WASHINGTON LGT RAIN 63 63 100 W53G62 N/A VSB 0  

 
 
NYZ052-076-210800-  
EASTERN NEW YORK  
 
CITY SKY/WX TMP DP RH WIND PRES REMARKS
 
ALBANY FAIR 73 69 87 CALM 29.76F  
NEW YORK CITY FAIR 88 72 58 W8 29.76F HX 94  

 
 
ANZALL-210800-  
MARINE OBSERVATIONS  
 
STATION/POSITION TIME TEMP WIND PRES VSBY WAVE
 
AIR SEA DIR/SP/G HT/PER  
(UTC) (F) (DEG/KT/KT) (MB) (MI) (FT/S)  
BOSTON BUOY 0650 77 71 240/ 12/ 14 1004.4F 1  
BUZZARDS BAY NOT AVBL  
NANTUCKET SOUND 0640 76 N/A 1/ 3  
MASS BAY-STELLWA 0604 74 68 240/ 10/ 12 1004.8F 1 7/8 1/ 8  
ISLE OF SHOALS 0600 82 240/ 14/ 14 1004.2F  
S OF BLOCK IS 0700 69 N/A 3/ 7  

 
   
.....................KEY......................
 
 
SKY/WX - SKY CONDITION/PRESENT WEATHER  
TMP - TEMPERATURE IN FAHRENHEIT  
DWPT - DEWPOINT IN FAHRENHEIT  
RH - RELATIVE HUMIDITY IN PERCENT  
WIND - DIRECTION AND SPEED IN MPH  
PRES - MEAN SEA LEVEL PRESSURE IN INCHES OF HG  
WCI - WIND CHILL INDEX  
VSB - VISIBILITY IN MILES  
HX - HEAT INDEX  
TC - TEMPERATURE IN CELSIUS  
VRB - VARIABLE WIND DIRECTION  
N/A - NOT AVAILABLE  
 
 
CLICK HERE TO GO TO PREVIOUS BULLETINS.

The Nexlab MA Page
The Nexlab RI Page
The Nexlab NH Page
The Nexlab CT Page Main Text Page